Year,Month,Day,Hour,Minute,Value (Times are PST for temperature in C)
2016,01,11,00,00,5.40
2016,01,11,00,01,5.50
2016,01,11,00,02,5.50
2016,01,11,00,03,5.50
2016,01,11,00,04,5.50
2016,01,11,00,05,5.50
2016,01,11,00,06,5.50
2016,01,11,00,07,5.50
2016,01,11,00,09,5.50
2016,01,11,00,10,5.40
2016,01,11,00,11,5.40
2016,01,11,00,12,5.30
2016,01,11,00,13,5.30
2016,01,11,00,14,5.30
2016,01,11,00,15,5.30
2016,01,11,00,16,5.40
2016,01,11,00,17,5.40
2016,01,11,00,18,5.30
2016,01,11,00,19,5.30
2016,01,11,00,20,5.30
2016,01,11,00,21,5.30
2016,01,11,00,22,5.30
2016,01,11,00,23,5.30
2016,01,11,00,24,5.30
2016,01,11,00,25,5.30
2016,01,11,00,26,5.30
2016,01,11,00,27,5.30
2016,01,11,00,28,5.30
2016,01,11,00,29,5.30
2016,01,11,00,30,5.30
2016,01,11,00,31,5.30
2016,01,11,00,32,5.30
2016,01,11,00,33,5.20
2016,01,11,00,34,5.20
2016,01,11,00,35,5.20
2016,01,11,00,36,5.20
2016,01,11,00,37,5.20
2016,01,11,00,38,5.20
2016,01,11,00,39,5.20
2016,01,11,00,40,5.20
2016,01,11,00,41,5.20
2016,01,11,00,42,5.20
2016,01,11,00,43,5.20
2016,01,11,00,44,5.20
2016,01,11,00,45,5.20
2016,01,11,00,46,5.20
2016,01,11,00,47,5.20
2016,01,11,00,48,5.20
2016,01,11,00,49,5.20
2016,01,11,00,50,5.20
2016,01,11,00,51,5.20
2016,01,11,00,52,5.20
2016,01,11,00,53,5.20
2016,01,11,00,54,5.20
2016,01,11,00,55,5.20
2016,01,11,00,56,5.20
2016,01,11,00,57,5.20
2016,01,11,00,58,5.20
2016,01,11,00,59,5.20
2016,01,11,01,00,5.20
2016,01,11,01,01,5.20
2016,01,11,01,02,5.20
2016,01,11,01,03,5.20
2016,01,11,01,04,5.20
2016,01,11,01,05,5.10
2016,01,11,01,06,5.10
2016,01,11,01,07,5.10
2016,01,11,01,08,5.10
2016,01,11,01,09,5.10
2016,01,11,01,10,5.10
2016,01,11,01,12,5.10
2016,01,11,01,13,5.10
2016,01,11,01,14,5.10
2016,01,11,01,16,5.10
2016,01,11,01,17,4.90
2016,01,11,01,18,4.90
2016,01,11,01,19,4.90
2016,01,11,01,21,4.90
2016,01,11,01,22,4.90
2016,01,11,01,23,4.90
2016,01,11,01,24,4.90
2016,01,11,01,26,4.80
2016,01,11,01,27,4.80
2016,01,11,01,28,4.80
2016,01,11,01,29,4.80
2016,01,11,01,31,4.80
2016,01,11,01,32,4.80
2016,01,11,01,33,4.80
2016,01,11,01,34,4.90
2016,01,11,01,36,4.90
2016,01,11,01,37,4.90
2016,01,11,01,38,4.90
2016,01,11,01,39,4.90
2016,01,11,01,41,5.10
2016,01,11,01,42,5.10
2016,01,11,01,43,5.10
2016,01,11,01,44,5.10
2016,01,11,01,46,5.10
2016,01,11,01,47,5.10
2016,01,11,01,48,5.20
2016,01,11,01,49,5.20
2016,01,11,01,51,5.30
2016,01,11,01,52,5.30
2016,01,11,01,53,5.30
2016,01,11,01,54,5.30
2016,01,11,01,56,5.30
2016,01,11,01,57,5.30
2016,01,11,01,58,5.30
2016,01,11,01,59,5.40
2016,01,11,02,01,5.40
2016,01,11,02,02,5.40
2016,01,11,02,03,5.40
2016,01,11,02,04,5.40
2016,01,11,02,06,5.40
2016,01,11,02,07,5.40
2016,01,11,02,08,5.40
2016,01,11,02,09,5.40
2016,01,11,02,11,5.30
2016,01,11,02,12,5.30
2016,01,11,02,13,5.30
2016,01,11,02,14,5.30
2016,01,11,02,16,5.30
2016,01,11,02,17,5.30
2016,01,11,02,18,5.30
2016,01,11,02,19,5.30
2016,01,11,02,21,5.30
2016,01,11,02,22,5.30
2016,01,11,02,23,5.30
2016,01,11,02,24,5.40
2016,01,11,02,26,5.40
2016,01,11,02,27,5.40
2016,01,11,02,28,5.40
2016,01,11,02,29,5.50
2016,01,11,02,31,5.50
2016,01,11,02,32,5.50
2016,01,11,02,33,5.50
2016,01,11,02,34,5.50
2016,01,11,02,35,5.50
2016,01,11,02,36,5.50
2016,01,11,02,37,5.50
2016,01,11,02,38,5.50
2016,01,11,02,39,5.50
2016,01,11,02,40,5.50
2016,01,11,02,41,5.60
2016,01,11,02,42,5.60
2016,01,11,02,43,5.60
2016,01,11,02,44,5.60
2016,01,11,02,45,5.60
2016,01,11,02,46,5.60
2016,01,11,02,47,5.60
2016,01,11,02,48,5.60
2016,01,11,02,49,5.60
2016,01,11,02,50,5.60
2016,01,11,02,51,5.60
2016,01,11,02,52,5.60
2016,01,11,02,53,5.60
2016,01,11,02,54,5.60
2016,01,11,02,55,5.60
2016,01,11,02,56,5.60
2016,01,11,02,57,5.60
2016,01,11,02,58,5.60
2016,01,11,02,59,5.50
2016,01,11,03,00,5.50
2016,01,11,03,01,5.50
2016,01,11,03,02,5.50
2016,01,11,03,03,5.50
2016,01,11,03,04,5.50
2016,01,11,03,05,5.50
2016,01,11,03,06,5.50
2016,01,11,03,07,5.50
2016,01,11,03,08,5.50
2016,01,11,03,09,5.50
2016,01,11,03,10,5.50
2016,01,11,03,11,5.50
2016,01,11,03,12,5.50
2016,01,11,03,13,5.40
2016,01,11,03,14,5.40
2016,01,11,03,15,5.40
2016,01,11,03,16,5.40
2016,01,11,03,17,5.40
2016,01,11,03,18,5.40
2016,01,11,03,19,5.40
2016,01,11,03,20,5.40
2016,01,11,03,21,5.40
2016,01,11,03,22,5.40
2016,01,11,03,23,5.40
2016,01,11,03,24,5.30
2016,01,11,03,25,5.30
2016,01,11,03,26,5.30
2016,01,11,03,27,5.30
2016,01,11,03,29,5.30
2016,01,11,03,31,5.30
2016,01,11,03,32,5.30
2016,01,11,03,33,5.20
2016,01,11,03,34,5.20
2016,01,11,03,36,5.20
2016,01,11,03,37,5.10
2016,01,11,03,38,5.10
2016,01,11,03,39,5.10
2016,01,11,03,41,5.10
2016,01,11,03,42,5.10
2016,01,11,03,43,5.10
2016,01,11,03,44,5.10
2016,01,11,03,46,4.90
2016,01,11,03,47,4.90
2016,01,11,03,48,4.90
2016,01,11,03,49,4.90
2016,01,11,03,51,4.90
2016,01,11,03,52,4.90
2016,01,11,03,53,4.90
2016,01,11,03,54,4.90
2016,01,11,03,56,4.90
2016,01,11,03,57,4.90
2016,01,11,03,58,4.90
2016,01,11,03,59,4.90
2016,01,11,04,01,4.90
2016,01,11,04,02,4.90
2016,01,11,04,03,4.90
2016,01,11,04,04,4.90
2016,01,11,04,06,4.80
2016,01,11,04,07,4.80
2016,01,11,04,08,4.80
2016,01,11,04,09,4.80
2016,01,11,04,11,4.70
2016,01,11,04,12,4.70
2016,01,11,04,13,4.70
2016,01,11,04,14,4.70
2016,01,11,04,16,4.70
2016,01,11,04,17,4.60
2016,01,11,04,18,4.60
2016,01,11,04,19,4.70
2016,01,11,04,21,4.70
2016,01,11,04,22,4.70
2016,01,11,04,23,4.70
2016,01,11,04,24,4.80
2016,01,11,04,26,4.80
2016,01,11,04,27,4.70
2016,01,11,04,28,4.70
2016,01,11,04,29,4.70
2016,01,11,04,31,4.70
2016,01,11,04,32,4.70
2016,01,11,04,33,4.60
2016,01,11,04,34,4.60
2016,01,11,04,35,4.60
2016,01,11,04,36,4.60
2016,01,11,04,37,4.60
2016,01,11,04,38,4.60
2016,01,11,04,39,4.60
2016,01,11,04,40,4.60
2016,01,11,04,41,4.60
2016,01,11,04,42,4.60
2016,01,11,04,43,4.60
2016,01,11,04,44,4.70
2016,01,11,04,45,4.70
2016,01,11,04,46,4.70
2016,01,11,04,47,4.70
2016,01,11,04,48,4.80
2016,01,11,04,49,4.80
2016,01,11,04,50,4.80
2016,01,11,04,51,4.80
2016,01,11,04,52,4.70
2016,01,11,04,53,4.70
2016,01,11,04,54,4.70
2016,01,11,04,55,4.70
2016,01,11,04,56,4.70
2016,01,11,04,57,4.70
2016,01,11,04,58,4.70
2016,01,11,04,59,4.70
2016,01,11,05,00,4.70
2016,01,11,05,01,4.70
2016,01,11,05,02,4.70
2016,01,11,05,03,4.70
2016,01,11,05,04,4.80
2016,01,11,05,05,4.80
2016,01,11,05,06,4.80
2016,01,11,05,07,4.80
2016,01,11,05,08,4.80
2016,01,11,05,09,4.80
2016,01,11,05,10,4.90
2016,01,11,05,11,4.90
2016,01,11,05,12,4.90
2016,01,11,05,13,4.90
2016,01,11,05,14,4.90
2016,01,11,05,15,4.90
2016,01,11,05,16,4.90
2016,01,11,05,17,4.90
2016,01,11,05,18,4.90
2016,01,11,05,19,4.90
2016,01,11,05,20,4.90
2016,01,11,05,21,4.90
2016,01,11,05,22,4.90
2016,01,11,05,23,4.90
2016,01,11,05,24,4.90
2016,01,11,05,25,4.90
2016,01,11,05,26,4.90
2016,01,11,05,27,4.90
2016,01,11,05,28,4.90
2016,01,11,05,29,4.90
2016,01,11,05,30,4.90
2016,01,11,05,31,4.90
2016,01,11,05,32,4.90
2016,01,11,05,33,5.10
2016,01,11,05,34,5.10
2016,01,11,05,35,5.10
2016,01,11,05,36,5.10
2016,01,11,05,37,5.10
2016,01,11,05,38,5.10
2016,01,11,05,39,5.10
2016,01,11,05,40,5.10
2016,01,11,05,41,5.10
2016,01,11,05,42,5.10
2016,01,11,05,43,5.10
2016,01,11,05,44,5.10
2016,01,11,05,45,5.10
2016,01,11,05,46,5.10
2016,01,11,05,47,5.10
2016,01,11,05,48,5.10
2016,01,11,05,49,5.10
2016,01,11,05,50,5.10
2016,01,11,05,51,5.20
2016,01,11,05,52,5.20
2016,01,11,05,53,5.20
2016,01,11,05,54,5.30
2016,01,11,05,55,5.30
2016,01,11,05,56,5.30
2016,01,11,05,57,5.30
2016,01,11,05,58,5.30
2016,01,11,05,59,5.30
2016,01,11,06,00,5.40
2016,01,11,06,02,5.40
2016,01,11,06,03,5.40
2016,01,11,06,04,5.50
2016,01,11,06,06,5.50
2016,01,11,06,07,5.50
2016,01,11,06,08,5.60
2016,01,11,06,09,5.60
2016,01,11,06,11,5.60
2016,01,11,06,12,5.60
2016,01,11,06,13,5.60
2016,01,11,06,14,5.60
2016,01,11,06,16,5.60
2016,01,11,06,17,5.60
2016,01,11,06,18,5.60
2016,01,11,06,19,5.60
2016,01,11,06,21,5.70
2016,01,11,06,22,5.70
2016,01,11,06,23,5.70
2016,01,11,06,24,5.70
2016,01,11,06,26,5.70
2016,01,11,06,27,5.70
2016,01,11,06,28,5.70
2016,01,11,06,29,5.70
2016,01,11,06,31,5.70
2016,01,11,06,32,5.70
2016,01,11,06,33,5.70
2016,01,11,06,34,5.70
2016,01,11,07,27,5.80
2016,01,11,07,28,5.80
2016,01,11,07,29,5.80
2016,01,11,07,30,5.80
2016,01,11,07,31,5.80
2016,01,11,07,32,5.80
2016,01,11,07,33,5.80
2016,01,11,07,34,5.80
2016,01,11,07,35,5.80
2016,01,11,07,36,5.80
2016,01,11,07,37,5.80
2016,01,11,07,38,5.80
2016,01,11,07,39,5.70
2016,01,11,07,40,5.70
2016,01,11,07,41,5.80
2016,01,11,07,42,5.70
2016,01,11,07,43,5.70
2016,01,11,07,44,5.70
2016,01,11,07,45,5.70
2016,01,11,07,46,5.70
2016,01,11,07,47,5.70
2016,01,11,07,48,5.70
2016,01,11,07,49,5.70
2016,01,11,07,50,5.70
2016,01,11,07,51,5.70
2016,01,11,07,52,5.70
2016,01,11,07,53,5.70
2016,01,11,07,54,5.70
2016,01,11,07,55,5.70
2016,01,11,07,56,5.70
2016,01,11,07,57,5.70
2016,01,11,07,58,5.70
2016,01,11,07,59,5.70
2016,01,11,08,00,5.70
2016,01,11,08,01,5.60
2016,01,11,08,02,5.60
2016,01,11,08,03,5.60
2016,01,11,08,04,5.60
2016,01,11,08,05,5.60
2016,01,11,08,06,5.60
2016,01,11,08,07,5.60
2016,01,11,08,08,5.60
2016,01,11,08,09,5.60
2016,01,11,08,10,5.60
2016,01,11,08,11,5.50
2016,01,11,08,12,5.60
2016,01,11,08,13,5.50
2016,01,11,08,14,5.50
2016,01,11,08,15,5.50
2016,01,11,08,16,5.50
2016,01,11,08,17,5.50
2016,01,11,08,18,5.50
2016,01,11,08,19,5.50
2016,01,11,08,20,5.50
2016,01,11,08,21,5.50
2016,01,11,08,22,5.50
2016,01,11,08,23,5.50
2016,01,11,08,24,5.50
2016,01,11,08,25,5.50
2016,01,11,08,26,5.50
2016,01,11,08,27,5.50
2016,01,11,08,28,5.50
2016,01,11,08,29,5.60
2016,01,11,08,31,5.60
2016,01,11,08,32,5.60
2016,01,11,08,33,5.60
2016,01,11,08,34,5.60
2016,01,11,08,36,5.70
2016,01,11,08,37,5.70
2016,01,11,08,38,5.70
2016,01,11,08,39,5.70
2016,01,11,08,41,5.70
2016,01,11,08,42,5.70
2016,01,11,08,43,5.70
2016,01,11,08,44,5.70
2016,01,11,08,46,5.70
2016,01,11,08,47,5.70
2016,01,11,08,48,5.70
2016,01,11,08,49,5.60
2016,01,11,08,51,5.60
2016,01,11,08,52,5.60
2016,01,11,08,53,5.60
2016,01,11,08,54,5.60
2016,01,11,08,56,5.60
2016,01,11,08,57,5.60
2016,01,11,08,58,5.60
2016,01,11,08,59,5.60
2016,01,11,09,01,5.60
2016,01,11,09,02,5.60
2016,01,11,09,03,5.60
2016,01,11,09,04,5.60
2016,01,11,09,06,5.60
2016,01,11,09,07,5.60
2016,01,11,09,08,5.70
2016,01,11,09,09,5.70
2016,01,11,09,11,5.70
2016,01,11,09,12,5.70
2016,01,11,09,13,5.70
2016,01,11,09,14,5.70
2016,01,11,09,16,5.70
2016,01,11,09,17,5.70
2016,01,11,09,18,5.70
2016,01,11,09,19,5.70
2016,01,11,09,21,5.70
2016,01,11,09,22,5.80
2016,01,11,09,23,5.80
2016,01,11,09,24,5.80
2016,01,11,09,26,5.90
2016,01,11,09,27,5.90
2016,01,11,09,28,5.90
2016,01,11,09,29,5.90
2016,01,11,09,31,6.00
2016,01,11,09,32,6.00
2016,01,11,09,33,6.00
2016,01,11,09,34,6.00
2016,01,11,09,36,6.00
2016,01,11,09,37,6.00
2016,01,11,09,38,6.10
2016,01,11,09,39,6.10
2016,01,11,09,41,6.10
2016,01,11,09,42,6.10
2016,01,11,09,43,6.10
2016,01,11,09,44,6.10
2016,01,11,09,46,6.10
2016,01,11,09,47,6.20
2016,01,11,09,48,6.20
2016,01,11,09,49,6.20
2016,01,11,09,51,6.20
2016,01,11,09,52,6.20
2016,01,11,09,53,6.20
2016,01,11,09,54,6.20
2016,01,11,09,56,6.20
2016,01,11,09,57,6.20
2016,01,11,09,58,6.20
2016,01,11,09,59,6.20
2016,01,11,10,00,6.20
2016,01,11,10,01,6.20
2016,01,11,10,02,6.20
2016,01,11,10,03,6.20
2016,01,11,10,04,6.20
2016,01,11,10,05,6.20
2016,01,11,10,06,6.20
2016,01,11,10,07,6.20
2016,01,11,10,08,6.20
2016,01,11,10,09,6.20
2016,01,11,10,10,6.30
2016,01,11,10,11,6.30
2016,01,11,10,12,6.30
2016,01,11,10,13,6.30
2016,01,11,10,14,6.40
2016,01,11,10,15,6.40
2016,01,11,10,16,6.40
2016,01,11,10,17,6.40
2016,01,11,10,18,6.40
2016,01,11,10,19,6.40
2016,01,11,10,20,6.40
2016,01,11,10,21,6.60
2016,01,11,10,22,6.60
2016,01,11,10,23,6.60
2016,01,11,10,24,6.60
2016,01,11,10,25,6.60
2016,01,11,10,26,6.60
2016,01,11,10,27,6.60
2016,01,11,10,28,6.60
2016,01,11,10,29,6.60
2016,01,11,10,30,6.60
2016,01,11,10,31,6.60
2016,01,11,10,32,6.70
2016,01,11,10,33,6.70
2016,01,11,10,34,6.70
2016,01,11,10,35,6.80
2016,01,11,10,36,6.80
2016,01,11,10,37,6.80
2016,01,11,10,38,6.80
2016,01,11,10,39,6.80
2016,01,11,10,40,6.80
2016,01,11,10,41,6.90
2016,01,11,10,42,6.90
2016,01,11,10,43,6.90
2016,01,11,10,44,7.00
2016,01,11,10,45,7.00
2016,01,11,10,46,7.00
2016,01,11,10,47,7.00
2016,01,11,10,48,7.00
2016,01,11,10,49,7.00
2016,01,11,10,50,7.00
2016,01,11,10,51,7.00
2016,01,11,10,52,7.00
2016,01,11,10,53,7.00
2016,01,11,10,54,7.00
2016,01,11,10,55,7.00
2016,01,11,10,56,7.00
2016,01,11,10,57,7.00
2016,01,11,10,58,7.00
2016,01,11,10,59,7.00
2016,01,11,11,00,7.00
2016,01,11,11,01,7.00
2016,01,11,11,02,7.00
2016,01,11,11,03,7.00
2016,01,11,11,04,7.10
2016,01,11,11,05,7.10
2016,01,11,11,06,7.10
2016,01,11,11,07,7.20
2016,01,11,11,08,7.20
2016,01,11,11,09,7.20
2016,01,11,11,10,7.20
2016,01,11,11,11,7.20
2016,01,11,11,12,7.20
2016,01,11,11,13,7.20
2016,01,11,11,14,7.20
2016,01,11,11,15,7.20
2016,01,11,11,16,7.30
2016,01,11,11,17,7.30
2016,01,11,11,18,7.30
2016,01,11,11,19,7.30
2016,01,11,11,21,7.30
2016,01,11,11,23,7.30
2016,01,11,11,24,7.30
2016,01,11,11,26,7.30
2016,01,11,11,27,7.40
2016,01,11,11,28,7.40
2016,01,11,11,29,7.40
2016,01,11,11,31,7.50
2016,01,11,11,32,7.50
2016,01,11,11,33,7.50
2016,01,11,11,34,7.60
2016,01,11,11,36,7.80
2016,01,11,11,37,7.80
2016,01,11,11,38,7.80
2016,01,11,11,39,7.90
2016,01,11,11,41,8.00
2016,01,11,11,42,8.00
2016,01,11,11,43,8.00
2016,01,11,11,44,8.00
2016,01,11,11,46,8.00
2016,01,11,11,47,7.90
2016,01,11,11,48,7.80
2016,01,11,12,27,7.80
2016,01,11,12,28,7.80
2016,01,11,12,29,7.80
2016,01,11,12,30,7.80
2016,01,11,12,31,7.80
2016,01,11,12,32,7.80
2016,01,11,12,33,7.80
2016,01,11,12,34,7.80
2016,01,11,12,35,7.80
2016,01,11,12,36,7.80
2016,01,11,12,37,7.80
2016,01,11,12,38,7.80
2016,01,11,12,39,7.80
2016,01,11,12,40,7.80
2016,01,11,12,41,7.80
2016,01,11,12,42,7.70
2016,01,11,12,43,7.70
2016,01,11,12,44,7.70
2016,01,11,12,45,7.70
2016,01,11,12,46,7.70
2016,01,11,12,47,7.70
2016,01,11,12,48,7.70
2016,01,11,12,49,7.70
2016,01,11,12,50,7.70
2016,01,11,12,51,7.70
2016,01,11,12,52,7.60
2016,01,11,12,53,7.60
2016,01,11,12,54,7.60
2016,01,11,12,55,7.60
2016,01,11,12,56,7.60
2016,01,11,12,57,7.60
2016,01,11,12,58,7.60
2016,01,11,12,59,7.60
2016,01,11,13,00,7.60
2016,01,11,13,01,7.60
2016,01,11,13,02,7.60
2016,01,11,13,03,7.60
2016,01,11,13,04,7.60
2016,01,11,13,05,7.60
2016,01,11,13,06,7.60
2016,01,11,13,07,7.60
2016,01,11,13,08,7.60
2016,01,11,13,09,7.60
2016,01,11,13,10,7.50
2016,01,11,13,11,7.50
2016,01,11,13,12,7.50
2016,01,11,13,13,7.50
2016,01,11,13,14,7.50
2016,01,11,13,15,7.50
2016,01,11,13,16,7.50
2016,01,11,13,17,7.50
2016,01,11,13,18,7.50
2016,01,11,13,19,7.40
2016,01,11,13,20,7.40
2016,01,11,13,21,7.40
2016,01,11,13,22,7.40
2016,01,11,13,23,7.30
2016,01,11,13,24,7.30
2016,01,11,13,25,7.30
2016,01,11,13,26,7.30
2016,01,11,13,27,7.30
2016,01,11,13,28,7.20
2016,01,11,13,29,7.20
2016,01,11,13,30,7.10
2016,01,11,13,31,7.10
2016,01,11,13,32,7.10
2016,01,11,13,33,7.10
2016,01,11,13,34,7.00
2016,01,11,13,35,7.00
2016,01,11,13,36,7.00
2016,01,11,13,37,7.00
2016,01,11,13,39,6.90
2016,01,11,13,41,6.80
2016,01,11,13,42,6.80
2016,01,11,13,43,6.80
2016,01,11,13,44,6.80
2016,01,11,13,46,6.80
2016,01,11,13,47,6.80
2016,01,11,13,48,6.80
2016,01,11,13,49,6.80
2016,01,11,13,51,6.80
2016,01,11,13,52,6.80
2016,01,11,13,53,6.80
2016,01,11,13,54,6.80
2016,01,11,13,56,6.80
2016,01,11,13,57,6.80
2016,01,11,13,58,6.80
2016,01,11,13,59,6.90
2016,01,11,14,01,6.90
2016,01,11,14,02,6.90
2016,01,11,14,03,6.90
2016,01,11,14,04,7.00
2016,01,11,14,06,7.00
2016,01,11,14,07,7.00
2016,01,11,14,08,7.10
2016,01,11,14,09,7.10
2016,01,11,14,11,7.10
2016,01,11,14,12,7.20
2016,01,11,14,13,7.20
2016,01,11,14,14,7.20
2016,01,11,14,16,7.30
2016,01,11,14,17,7.30
2016,01,11,14,18,7.30
2016,01,11,14,19,7.30
2016,01,11,14,21,7.30
2016,01,11,14,22,7.30
2016,01,11,14,23,7.30
2016,01,11,14,24,7.40
2016,01,11,14,26,7.40
2016,01,11,14,27,7.50
2016,01,11,14,28,7.50
2016,01,11,14,29,7.50
2016,01,11,14,31,7.60
2016,01,11,14,32,7.60
2016,01,11,14,33,7.60
2016,01,11,14,34,7.60
2016,01,11,14,36,7.60
2016,01,11,14,37,7.60
2016,01,11,14,38,7.60
2016,01,11,14,39,7.60
2016,01,11,14,41,7.50
2016,01,11,14,42,7.50
2016,01,11,14,43,7.50
2016,01,11,14,44,7.60
2016,01,11,14,46,7.60
2016,01,11,14,47,7.60
2016,01,11,14,48,7.60
2016,01,11,14,49,7.60
2016,01,11,14,51,7.70
2016,01,11,14,52,7.70
2016,01,11,14,53,7.70
2016,01,11,14,54,7.70
2016,01,11,14,55,7.80
2016,01,11,14,56,7.80
2016,01,11,14,57,7.80
2016,01,11,14,58,7.80
2016,01,11,14,59,7.80
2016,01,11,15,00,7.80
2016,01,11,15,01,7.80
2016,01,11,15,02,7.90
2016,01,11,15,03,7.90
2016,01,11,15,04,7.90
2016,01,11,15,05,7.90
2016,01,11,15,06,7.90
2016,01,11,15,07,7.90
2016,01,11,15,08,7.90
2016,01,11,15,09,7.80
2016,01,11,15,10,7.80
2016,01,11,15,11,7.80
2016,01,11,15,12,7.80
2016,01,11,15,13,7.80
2016,01,11,15,14,7.80
2016,01,11,15,15,7.70
2016,01,11,15,16,7.70
2016,01,11,15,17,7.70
2016,01,11,15,18,7.70
2016,01,11,15,19,7.70
2016,01,11,15,20,7.70
2016,01,11,15,21,7.70
2016,01,11,15,22,7.70
2016,01,11,15,23,7.60
2016,01,11,15,24,7.60
2016,01,11,15,25,7.60
2016,01,11,15,26,7.60
2016,01,11,15,27,7.60
2016,01,11,15,28,7.60
2016,01,11,15,29,7.60
2016,01,11,15,30,7.60
2016,01,11,15,31,7.60
2016,01,11,15,32,7.60
2016,01,11,15,33,7.60
2016,01,11,15,34,7.60
2016,01,11,15,35,7.60
2016,01,11,15,36,7.60
2016,01,11,15,37,7.60
2016,01,11,15,38,7.60
2016,01,11,15,39,7.60
2016,01,11,15,40,7.60
2016,01,11,15,41,7.60
2016,01,11,15,42,7.60
2016,01,11,15,43,7.60
2016,01,11,15,44,7.60
2016,01,11,15,45,7.60
2016,01,11,15,46,7.60
2016,01,11,15,47,7.60
2016,01,11,15,48,7.60
2016,01,11,15,49,7.60
2016,01,11,15,50,7.60
2016,01,11,15,51,7.60
2016,01,11,15,52,7.70
2016,01,11,15,53,7.70
2016,01,11,15,54,7.70
2016,01,11,15,55,7.70
2016,01,11,15,56,7.80
2016,01,11,15,57,7.80
2016,01,11,15,58,7.80
2016,01,11,15,59,7.80
2016,01,11,16,00,7.80
2016,01,11,16,02,7.80
2016,01,11,16,03,7.80
2016,01,11,16,04,7.80
2016,01,11,16,06,7.80
2016,01,11,16,07,7.80
2016,01,11,16,08,7.80
2016,01,11,16,09,7.80
2016,01,11,16,11,7.80
2016,01,11,16,12,7.80
2016,01,11,16,13,7.80
2016,01,11,16,14,7.80
2016,01,11,16,16,7.80
2016,01,11,16,17,7.80
2016,01,11,16,18,7.80
2016,01,11,16,19,7.80
2016,01,11,16,21,7.80
2016,01,11,16,22,7.80
2016,01,11,16,23,7.80
2016,01,11,16,24,7.80
2016,01,11,16,26,7.80
2016,01,11,16,27,7.80
2016,01,11,16,28,7.80
2016,01,11,16,29,7.80
2016,01,11,16,31,7.80
2016,01,11,16,32,7.80
2016,01,11,16,33,7.80
2016,01,11,16,34,7.80
2016,01,11,16,36,7.80
2016,01,11,16,37,7.80
2016,01,11,16,38,7.80
2016,01,11,16,39,7.70
2016,01,11,16,41,7.70
2016,01,11,16,42,7.70
2016,01,11,16,43,7.70
2016,01,11,16,44,7.70
2016,01,11,16,46,7.60
2016,01,11,16,47,7.60
2016,01,11,16,48,7.60
2016,01,11,16,49,7.60
2016,01,11,16,51,7.60
2016,01,11,16,52,7.60
2016,01,11,16,53,7.60
2016,01,11,16,54,7.60
2016,01,11,16,55,7.60
2016,01,11,16,56,7.50
2016,01,11,16,57,7.50
2016,01,11,16,58,7.50
2016,01,11,16,59,7.50
2016,01,11,17,00,7.50
2016,01,11,17,01,7.50
2016,01,11,17,02,7.50
2016,01,11,17,03,7.50
2016,01,11,17,04,7.50
2016,01,11,17,05,7.50
2016,01,11,17,06,7.50
2016,01,11,17,07,7.50
2016,01,11,17,08,7.50
2016,01,11,17,09,7.50
2016,01,11,17,10,7.50
2016,01,11,17,11,7.50
2016,01,11,17,12,7.50
2016,01,11,17,13,7.50
2016,01,11,17,14,7.50
2016,01,11,17,15,7.50
2016,01,11,17,16,7.50
2016,01,11,17,17,7.50
2016,01,11,17,18,7.50
2016,01,11,17,19,7.50
2016,01,11,17,20,7.50
2016,01,11,17,21,7.50
2016,01,11,17,22,7.50
2016,01,11,17,23,7.50
2016,01,11,17,24,7.50
2016,01,11,17,25,7.40
2016,01,11,17,26,7.40
2016,01,11,17,27,7.40
2016,01,11,17,28,7.40
2016,01,11,17,29,7.40
2016,01,11,17,30,7.50
2016,01,11,17,31,7.50
2016,01,11,17,32,7.50
2016,01,11,17,33,7.50
2016,01,11,17,34,7.50
2016,01,11,17,35,7.50
2016,01,11,17,36,7.50
2016,01,11,17,37,7.50
2016,01,11,17,38,7.50
2016,01,11,17,39,7.50
2016,01,11,17,40,7.50
2016,01,11,17,41,7.50
2016,01,11,17,42,7.50
2016,01,11,17,43,7.50
2016,01,11,17,44,7.50
2016,01,11,17,45,7.50
2016,01,11,17,46,7.50
2016,01,11,17,47,7.50
2016,01,11,17,48,7.50
2016,01,11,17,49,7.40
2016,01,11,17,50,7.40
2016,01,11,17,51,7.40
2016,01,11,17,52,7.40
2016,01,11,17,53,7.40
2016,01,11,17,54,7.40
2016,01,11,17,55,7.40
2016,01,11,17,56,7.40
2016,01,11,17,57,7.40
2016,01,11,17,59,7.40
2016,01,11,18,01,7.30
2016,01,11,18,02,7.30
2016,01,11,18,03,7.30
2016,01,11,18,04,7.30
2016,01,11,18,06,7.30
2016,01,11,18,07,7.30
2016,01,11,18,08,7.30
2016,01,11,18,09,7.30
2016,01,11,18,11,7.30
2016,01,11,18,12,7.30
2016,01,11,18,13,7.30
2016,01,11,18,14,7.30
2016,01,11,18,16,7.30
2016,01,11,18,17,7.30
2016,01,11,18,18,7.30
2016,01,11,18,19,7.30
2016,01,11,18,21,7.30
2016,01,11,18,22,7.30
2016,01,11,18,23,7.30
2016,01,11,18,24,7.30
2016,01,11,18,26,7.30
2016,01,11,18,27,7.30
2016,01,11,18,28,7.30
2016,01,11,18,29,7.30
2016,01,11,18,31,7.30
2016,01,11,18,32,7.30
2016,01,11,18,33,7.30
2016,01,11,18,34,7.30
2016,01,11,18,36,7.20
2016,01,11,18,37,7.20
2016,01,11,18,38,7.20
2016,01,11,18,39,7.20
2016,01,11,18,41,7.10
2016,01,11,18,42,7.00
2016,01,11,18,43,7.00
2016,01,11,18,44,6.90
2016,01,11,18,45,6.90
2016,01,11,18,46,6.90
2016,01,11,18,47,6.80
2016,01,11,18,48,6.80
2016,01,11,18,49,6.80
2016,01,11,18,51,6.70
2016,01,11,18,52,6.70
2016,01,11,18,53,6.70
2016,01,11,18,54,6.70
2016,01,11,18,55,6.60
2016,01,11,18,56,6.60
2016,01,11,18,57,6.60
2016,01,11,18,58,6.60
2016,01,11,18,59,6.60
2016,01,11,19,00,6.60
2016,01,11,19,01,6.60
2016,01,11,19,02,6.60
2016,01,11,19,03,6.60
2016,01,11,19,04,6.60
2016,01,11,19,05,6.60
2016,01,11,19,06,6.60
2016,01,11,19,07,6.60
2016,01,11,19,08,6.60
2016,01,11,19,09,6.60
2016,01,11,19,10,6.60
2016,01,11,19,11,6.60
2016,01,11,19,12,6.60
2016,01,11,19,13,6.40
2016,01,11,19,14,6.40
2016,01,11,19,15,6.40
2016,01,11,19,16,6.40
2016,01,11,19,17,6.40
2016,01,11,19,18,6.40
2016,01,11,19,19,6.40
2016,01,11,19,27,6.20
2016,01,11,19,28,6.20
2016,01,11,19,29,6.20
2016,01,11,19,30,6.20
2016,01,11,19,31,6.10
2016,01,11,19,32,6.10
2016,01,11,19,33,6.10
2016,01,11,19,34,6.10
2016,01,11,19,35,6.00
2016,01,11,19,36,6.00
2016,01,11,19,37,6.00
2016,01,11,19,38,6.00
2016,01,11,19,39,6.00
2016,01,11,19,40,6.00
2016,01,11,19,41,6.00
2016,01,11,19,42,6.10
2016,01,11,19,43,6.10
2016,01,11,19,44,6.10
2016,01,11,19,45,6.10
2016,01,11,19,46,6.10
2016,01,11,19,47,6.10
2016,01,11,19,48,6.10
2016,01,11,19,49,6.20
2016,01,11,19,50,6.20
2016,01,11,19,51,6.20
2016,01,11,19,52,6.10
2016,01,11,19,53,6.10
2016,01,11,19,54,6.10
2016,01,11,19,55,6.10
2016,01,11,19,56,6.10
2016,01,11,19,57,6.10
2016,01,11,19,58,6.10
2016,01,11,19,59,6.20
2016,01,11,20,00,6.20
2016,01,11,20,01,6.20
2016,01,11,20,02,6.20
2016,01,11,20,03,6.20
2016,01,11,20,04,6.20
2016,01,11,20,05,6.20
2016,01,11,20,06,6.10
2016,01,11,20,07,6.10
2016,01,11,20,08,6.20
2016,01,11,20,09,6.20
2016,01,11,20,10,6.20
2016,01,11,20,12,6.10
2016,01,11,20,13,6.10
2016,01,11,20,14,6.10
2016,01,11,20,16,6.00
2016,01,11,20,17,6.00
2016,01,11,20,18,6.00
2016,01,11,20,19,6.00
2016,01,11,20,21,5.90
2016,01,11,20,22,5.90
2016,01,11,20,23,5.90
2016,01,11,20,24,5.90
2016,01,11,20,26,5.90
2016,01,11,20,27,5.90
2016,01,11,20,28,5.90
2016,01,11,20,29,5.90
2016,01,11,20,31,5.90
2016,01,11,20,32,6.00
2016,01,11,20,33,6.00
2016,01,11,20,34,6.00
2016,01,11,20,36,6.00
2016,01,11,20,37,6.00
2016,01,11,20,38,6.00
2016,01,11,20,39,6.00
2016,01,11,20,41,6.00
2016,01,11,20,42,6.00
2016,01,11,20,43,6.00
2016,01,11,20,44,5.90
2016,01,11,20,46,5.90
2016,01,11,20,47,5.90
2016,01,11,20,48,5.90
2016,01,11,20,49,5.90
2016,01,11,20,51,5.80
2016,01,11,20,52,5.80
2016,01,11,20,53,5.80
2016,01,11,20,54,5.80
2016,01,11,20,56,5.80
2016,01,11,20,57,5.80
2016,01,11,20,58,5.80
2016,01,11,20,59,5.80
2016,01,11,21,01,5.80
2016,01,11,21,02,5.80
2016,01,11,21,03,5.80
2016,01,11,21,04,5.80
2016,01,11,21,06,5.80
2016,01,11,21,07,5.80
2016,01,11,21,08,5.80
2016,01,11,21,09,5.80
2016,01,11,21,11,5.80
2016,01,11,21,12,5.80
2016,01,11,21,13,5.90
2016,01,11,21,14,5.90
2016,01,11,21,16,5.90
2016,01,11,21,17,5.90
2016,01,11,21,27,5.80
2016,01,11,21,28,5.90
2016,01,11,21,29,5.90
2016,01,11,21,30,5.80
2016,01,11,21,31,5.80
2016,01,11,21,32,5.80
2016,01,11,21,33,5.80
2016,01,11,21,34,5.90
2016,01,11,21,35,5.90
2016,01,11,21,36,5.90
2016,01,11,21,37,5.90
2016,01,11,21,38,5.90
2016,01,11,21,39,5.90
2016,01,11,21,40,5.90
2016,01,11,21,41,5.90
2016,01,11,21,42,5.80
2016,01,11,21,43,5.80
2016,01,11,21,44,5.80
2016,01,11,21,45,5.80
2016,01,11,21,46,5.80
2016,01,11,21,47,5.80
2016,01,11,21,48,5.80